Location: Ku?niki
(51.4449°N, 17.8974°E)
Time: 13:43:17
(UTC+00:00)

O/OREOS (USA 219) - Visible Passes

Search period start: 28 June 2022 00:00
Search period end: 08 July 2022 00:00
Orbit: 621 x 646 km, 72.0° (Epoch: 22 May)

Date Brightness Start Highest point End Pass type
(mag) Time Alt. Az. Time Alt. Az. Time Alt. Az.
28 Jun ? 01:21:27 10° WNW 01:23:34 13° W 01:25:41 10° SW visible
28 Jun ? 22:23:10 10° NNW 22:27:17 31° NE 22:31:23 10° ESE visible
29 Jun ? 00:02:28 10° NW 00:06:51 45° WSW 00:09:40 20° S visible
29 Jun ? 21:06:48 10° N 21:09:05 13° NE 21:11:23 10° ENE visible
29 Jun ? 22:45:02 10° NNW 22:49:35 54° ENE 22:53:22 14° SE visible
30 Jun ? 00:25:02 10° NW 00:28:40 23° WSW 00:30:47 17° SW visible
30 Jun ? 21:28:13 10° N 21:31:42 21° NE 21:35:10 10° E visible
30 Jun ? 23:07:04 10° NNW 23:11:42 80° WSW 23:14:33 23° SSE visible
01 Jul ? 00:48:38 10° WNW 00:50:18 12° W 00:51:58 10° WSW visible
01 Jul ? 21:49:57 10° NNW 21:54:08 33° NE 21:58:20 10° ESE visible
01 Jul ? 23:29:20 10° NW 23:33:38 41° WSW 23:35:47 25° SSW visible
02 Jul ? 20:33:29 10° N 20:36:00 14° NE 20:38:29 10° ENE visible
02 Jul ? 22:11:49 10° NNW 22:16:25 59° ENE 22:19:39 19° SE visible
02 Jul ? 23:51:58 10° NW 23:55:26 21° WSW 23:57:05 18° SW visible
03 Jul ? 20:54:58 10° N 20:58:35 22° NE 21:02:10 10° E visible
03 Jul ? 22:33:53 10° NNW 22:38:30 73° WSW 22:40:59 27° SSE visible
04 Jul ? 00:16:03 10° W 00:17:03 11° W 00:18:03 10° WSW visible
04 Jul ? 21:16:43 10° NNW 21:20:59 36° NE 21:24:56 12° ESE visible
04 Jul ? 22:56:11 10° NW 23:00:26 37° WSW 23:02:22 25° SSW visible
05 Jul ? 20:00:12 10° N 20:02:53 15° NE 20:05:35 10° ENE visible
05 Jul ? 21:38:38 10° NNW 21:43:14 65° ENE 21:46:21 20° SE visible
05 Jul ? 23:18:55 10° NW 23:22:12 19° WSW 23:23:47 16° SW visible
06 Jul ? 20:21:43 10° N 20:25:27 23° NE 20:29:10 10° E visible
06 Jul ? 22:00:43 10° NNW 22:05:18 67° WSW 22:07:48 26° S visible
07 Jul ? 20:43:30 10° NNW 20:47:50 39° NE 20:51:51 12° ESE visible
07 Jul ? 22:23:03 10° NW 22:27:13 34° WSW 22:29:17 23° SSW visible
